EW0590 Weather Reports


time (UTC)temp
C
wind
direction
speed
KPH
gust
KPH
rain 1hr
cm
rain 24hr
cm
rain mn
cm
humidity
%
barometer
mb
20260906154600 28 354 0.0 12.9 0.00 0.00 0.00 70 1015.6
20260906153600 28 304 0.0 6.4 0.00 0.00 0.00 70 1015.5
20260906152600 28 149 0.0 8.0 0.00 0.00 0.00 70 1015.3
20260906151600 28 68 3.2 3.2 0.00 0.00 0.00 71 1015.0
20260906150600 27 156 4.8 6.4 0.00 0.00 0.00 72 1014.9
20260906145600 27 150 4.8 8.0 0.00 0.00 0.00 74 1014.9
20260906144600 27 228 1.6 6.4 0.00 0.00 0.00 75 1014.9
20260906143600 27 8 0.0 4.8 0.00 0.00 0.00 77 1014.9
20260906142600 26 75 0.0 6.4 0.00 0.00 0.00 77 1014.9
20260906141600 26 220 0.0 4.8 0.00 0.00 0.00 77 1014.8
20260906140600 26 155 0.0 3.2 0.00 0.00 0.00 78 1014.6
20260906135600 25 105 0.0 12.9 0.00 0.00 0.00 78 1014.7
20260906134600 25 329 0.0 1.6 0.00 0.00 0.00 77 1014.7
20260906133600 25 245 0.0 1.6 0.00 0.00 0.00 74 1014.7
20260906132600 25 225 1.6 4.8 0.00 0.00 0.00 72 1014.9
20260906131600 24 246 0.0 1.6 0.00 0.00 0.00 72 1014.9
20260906130600 24 233 0.0 1.6 0.00 0.00 0.00 70 1014.8
20260906125600 23 159 0.0 3.2 0.00 0.00 0.00 68 1014.8
20260906124600 23 281 0.0 1.6 0.00 0.00 0.00 62 1014.8
20260906123600 23 160 0.0 3.2 0.00 0.00 0.00 53 1014.6
20260906122600 22 243 0.0 3.2 0.00 0.00 0.00 42 1014.5
20260906121600 22 150 0.0 0.0 0.00 0.00 0.00 37 1014.3
20260906120600 22 149 0.0 1.6 0.00 0.00 0.00 34 1014.1
20260906115600 22 149 0.0 1.6 0.00 0.00 0.00 31 1014.1
20260906114600 22 150 0.0 0.0 0.00 0.00 0.00 31 1014.1
20260906113600 22 149 0.0 0.0 0.00 0.00 0.00 35 1014.0
20260906112600 22 149 0.0 0.0 0.00 0.00 0.00 37 1013.9
20260906111600 22 150 0.0 0.0 0.00 0.00 0.00 38 1013.9
20260906110600 22 77 0.0 1.6 0.00 0.00 0.00 44 1013.8
20260906105600 23 32 0.0 0.0 0.00 0.00 0.00 47 1013.7
20260906104600 23 31 0.0 0.0 0.00 0.00 0.00 49 1013.6
20260906103600 23 32 0.0 0.0 0.00 0.00 0.00 52 1013.6
20260906102600 23 32 0.0 1.6 0.00 0.00 0.00 56 1013.5
20260906101600 23 40 0.0 0.0 0.00 0.00 0.00 60 1013.3
20260906100600 24 40 0.0 1.6 0.00 0.00 0.00 63 1013.3
20260906095600 24 45 0.0 0.0 0.00 0.00 0.00 63 1013.3
20260906094600 25 49 0.0 1.6 0.00 0.00 0.00 65 1013.3
20260906093600 25 350 0.0 1.6 0.00 0.00 0.00 67 1013.2
20260906092600 25 350 0.0 0.0 0.00 0.00 0.00 70 1013.1
20260906091600 25 349 0.0 1.6 0.00 0.00 0.00 72 1012.9
20260906090600 26 316 0.0 1.6 0.00 0.00 0.00 73 1013.0
20260906085600 26 250 0.0 4.8 0.00 0.00 0.00 72 1012.9
20260906084559 26 281 0.0 4.8 0.00 0.00 0.00 68 1012.8
20260906083559 25 181 0.0 1.6 0.00 0.00 0.00 62 1012.7
20260906082600 25 174 1.6 1.6 0.00 0.00 0.00 53 1012.7
20260906081600 25 226 0.0 0.0 0.00 0.00 0.00 48 1012.6
20260906080600 25 226 0.0 0.0 0.00 0.00 0.00 47 1012.8
20260906075559 25 226 0.0 0.0 0.00 0.00 0.00 47 1012.5
20260906074559 25 226 0.0 3.2 0.00 0.00 0.00 44 1012.6
20260906073600 24 236 0.0 0.0 0.00 0.00 0.00 41 1012.5
20260906072600 25 235 0.0 0.0 0.00 0.00 0.00 43 1012.4
20260906071600 25 235 0.0 0.0 0.00 0.00 0.00 45 1012.4
20260906070600 25 235 0.0 0.0 0.00 0.00 0.00 46 1012.5
20260906065559 25 235 0.0 0.0 0.00 0.00 0.00 48 1012.4
20260906064559 25 236 0.0 0.0 0.00 0.00 0.00 48 1012.6
20260906063559 25 235 0.0 0.0 0.00 0.00 0.00 49 1012.7
20260906062600 25 235 0.0 0.0 0.00 0.00 0.00 52 1012.8
20260906061559 25 235 0.0 0.0 0.00 0.00 0.00 53 1012.7
20260906060559 25 235 0.0 0.0 0.00 0.00 0.00 55 1012.8
20260906055559 25 236 0.0 0.0 0.00 0.00 0.00 56 1012.7
20260906054559 25 236 0.0 0.0 0.00 0.00 0.00 56 1012.7
20260906053559 25 235 0.0 0.0 0.00 0.00 0.00 59 1012.6
20260906052559 25 235 0.0 0.0 0.00 0.00 0.00 62 1012.7
20260906051559 25 235 0.0 0.0 0.00 0.00 0.00 64 1012.7
20260906050559 25 235 0.0 0.0 0.00 0.00 0.00 64 1012.7
20260906045559 25 235 0.0 0.0 0.00 0.00 0.00 68 1012.5
20260906044559 25 235 0.0 0.0 0.00 0.00 0.00 71 1012.4
20260906043559 25 235 0.0 0.0 0.00 0.00 0.00 72 1012.4
20260906042559 26 236 0.0 0.0 0.00 0.00 0.00 73 1012.3
20260906041559 26 235 0.0 0.0 0.00 0.00 0.00 74 1012.3
20260906040559 26 235 0.0 0.0 0.00 0.00 0.00 75 1012.2
20260906035559 26 235 0.0 0.0 0.00 0.00 0.00 75 1012.0
20260906034559 26 235 0.0 0.0 0.00 0.00 0.00 75 1012.0
20260906033559 26 235 0.0 0.0 0.00 0.00 0.00 75 1012.0
20260906032559 26 235 0.0 0.0 0.00 0.00 0.00 75 1011.9
20260906031559 26 236 0.0 0.0 0.00 0.00 0.00 76 1011.8
20260906030559 26 236 0.0 0.0 0.00 0.00 0.00 76 1011.7
20260906025559 26 235 0.0 0.0 0.00 0.00 0.00 77 1011.6
20260906024559 26 235 0.0 0.0 0.00 0.00 0.00 77 1011.5
20260906023559 26 235 0.0 0.0 0.00 0.00 0.00 77 1011.5
20260906022559 26 235 0.0 0.0 0.00 0.00 0.00 78 1011.1
20260906021559 26 235 0.0 0.0 0.00 0.00 0.00 78 1011.1
20260906020559 27 235 0.0 0.0 0.00 0.00 0.00 78 1011.0
20260906015559 27 235 0.0 0.0 0.00 0.00 0.00 77 1010.9
20260906014559 27 235 0.0 0.0 0.00 0.00 0.00 76 1010.7
20260906013559 27 235 0.0 0.0 0.00 0.00 0.00 76 1010.7
20260906012559 28 235 0.0 0.0 0.00 0.00 0.00 75 1010.5
20260906011559 28 236 0.0 0.0 0.00 0.00 0.00 74 1010.4
20260906010559 28 235 0.0 0.0 0.00 0.00 0.00 72 1010.2
20260906005559 30 235 0.0 0.0 0.00 0.00 0.00 71 1010.2
20260906004559 30 235 0.0 0.0 0.00 0.00 0.00 69 1010.1
20260906003559 31 235 0.0 0.0 0.00 0.00 0.00 66 1010.0
20260906002559 32 235 0.0 0.0 0.00 0.00 0.00 64 1010.0
20260906001559 32 235 0.0 0.0 0.00 0.00 0.00 64 1010.0
20260906000559 33 236 0.0 0.0 0.00 0.00 0.00 59 1010.1
20260905235559 35 236 0.0 1.6 0.00 0.00 0.00 51 1010.0
20260905234559 35 236 0.0 1.6 0.00 0.00 0.00 51 1010.0
20260905233559 35 260 0.0 1.6 0.00 0.00 0.00 50 1010.1
20260905232559 35 257 0.0 1.6 0.00 0.00 0.00 49 1010.2
20260905231559 35 283 0.0 3.2 0.00 0.00 0.00 50 1010.1
20260905230559 36 329 0.0 3.2 0.00 0.00 0.00 49 1010.4
20260905225559 36 257 0.0 1.6 0.00 0.00 0.00 47 1010.3
20260905224559 37 277 0.0 3.2 0.00 0.00 0.00 45 1010.2
20260905223559 37 278 0.0 6.4 0.00 0.00 0.00 46 1010.0
20260905222559 37 229 1.6 3.2 0.00 0.00 0.00 46 1010.1
20260905221559 36 61 0.0 3.2 0.00 0.00 0.00 47 1010.2
20260905220559 36 297 0.0 1.6 0.00 0.00 0.00 49 1010.1
20260905215559 37 250 0.0 1.6 0.00 0.00 0.00 47 1010.2
20260905214559 37 20 0.0 1.6 0.00 0.00 0.00 49 1010.3
20260905213559 36 319 0.0 4.8 0.00 0.00 0.00 46 1010.2
20260905212559 36 347 0.0 3.2 0.00 0.00 0.00 46 1010.2
20260905211559 37 262 1.6 3.2 0.00 0.00 0.00 45 1010.2
20260905210559 36 107 0.0 1.6 0.00 0.00 0.00 48 1010.3
20260905205558 34 139 0.0 4.8 0.00 0.00 0.00 50 1010.6
20260905204559 34 148 0.0 4.8 0.00 0.00 0.00 48 1010.6
20260905203559 35 131 4.8 12.9 0.00 0.00 0.00 46 1010.6
20260905202559 35 283 0.0 8.0 0.00 0.00 0.00 50 1010.8
20260905201559 36 299 9.7 12.9 0.00 0.00 0.00 47 1011.0
20260905200559 37 323 0.0 4.8 0.00 0.00 0.00 43 1010.7
20260905195558 38 335 3.2 8.0 0.00 0.00 0.00 41 1010.8
20260905194558 38 8 0.0 4.8 0.00 0.00 0.00 43 1010.8
20260905193558 37 32 0.0 6.4 0.00 0.00 0.00 43 1010.9
20260905192558 37 167 0.0 6.4 0.00 0.00 0.00 44 1011.1
20260905191559 37 333 1.6 6.4 0.00 0.00 0.00 43 1011.3
20260905190558 38 307 3.2 9.7 0.00 0.00 0.00 43 1011.3
20260905185559 38 313 3.2 6.4 0.00 0.00 0.00 43 1011.4
20260905184559 37 69 3.2 9.7 0.00 0.00 0.00 44 1011.4
20260905183558 38 282 0.0 8.0 0.00 0.00 0.00 44 1011.6
20260905182559 38 243 0.0 8.0 0.00 0.00 0.00 44 1011.7
20260905181558 38 64 1.6 6.4 0.00 0.00 0.00 45 1011.7
20260905180558 37 59 0.0 6.4 0.00 0.00 0.00 48 1011.8
20260905175558 37 59 1.6 4.8 0.00 0.00 0.00 47 1011.9
20260905174558 37 243 1.6 6.4 0.00 0.00 0.00 50 1012.1
20260905173558 37 229 0.0 4.8 0.00 0.00 0.00 49 1012.1
20260905172558 36 34 1.6 6.4 0.00 0.00 0.00 51 1012.3
20260905171558 36 353 0.0 4.8 0.00 0.00 0.00 49 1012.4
20260905170558 36 29 4.8 4.8 0.00 0.00 0.00 49 1012.5
20260905165558 36 318 4.8 6.4 0.00 0.00 0.00 50 1012.6
20260905164558 36 27 0.0 8.0 0.00 0.00 0.00 49 1012.7
20260905163558 36 257 0.0 3.2 0.00 0.00 0.00 55 1012.9
20260905162558 35 34 0.0 3.2 0.00 0.00 0.00 53 1013.0
20260905161558 35 71 0.0 4.8 0.00 0.00 0.00 55 1012.9
20260905160558 35 149 1.6 4.8 0.00 0.00 0.00 56 1013.0
20260905155558 34 197 0.0 8.0 0.00 0.00 0.00 57 1013.1